www.pogodaiklimat.ru

Погода и климат >> Архив погоды >> Афганистан >> Кандагар


ПОГОДА в Кандагаре

  • Прогноз погоды в Кандагаре
  • Монитор погоды в Кандагаре

АРХИВ ПОГОДЫ в Кандагаре

Время (UTC), дата Ветер
(напр.,м/с)
 
Видим.   Явления Облачность Т
(С)
Тd
(С)
f
(%)
Тe
(С)
Тes
(С)
Комфортность P
(гПа)
Po
(гПа)
Тmin
(С)
Tmax
(С)
R
(мм)
R24
(мм)
S
(см)
09 16.07 СЗ 2 16 км н/о +41.0 -8.3 4 +36 +36 очень
жарко
987.2 886.4
12 16.07 СЗ 2 23 км н/о +41.2 -8.2 4 +37 +37 очень
жарко
985.7 885.1
15 16.07 З 1 1300 м мгла н/о +37.2 -4.5 7 +33 +33 жарко 987.5 885.5
18 16.07 ЮВ 1 8000 м мгла {дождь} н/о +31.2 -2.9 11 +28 +28 жарко 991.1 886.8 +42.3
21 16.07 ЮВ 1 15 км н/о +28.3 -0.8 15 +26 +26 жарко 992.0 886.6
00 17.07 Ю 4 800 м сильная пыльная буря {метель} н/о +31.8 +8.1 23 +31 +31 жарко 992.1 887.9
03 17.07 Ю 2 2000 м мгла н/о +32.5 +9.3 24 +32 +32 жарко 993.7 889.5
06 17.07 Ю 3 2900 м мгла н/о +36.9 +6.9 16 +35 +35 очень
жарко
992.3 889.7 +27.6
09 17.07 СЗ 2 3300 м мгла н/о +40.3 +5.3 12 +37 +37 очень
жарко
989.5 888.2
12 17.07 З 3 27 км н/о +41.6 -7.9 4 +37 +37 очень
жарко
987.0 886.4
15 17.07 ЮЗ 2 13 км н/о +38.6 -3.5 7 +34 +34 очень
жарко
987.8 886.2
18 17.07 ЮЗ 1 7000 м мгла н/о +33.5 -1.1 11 +30 +30 жарко 990.6 887.1 +42.2
21 17.07 Ю 1 16 км н/о +30.5 -4.7 10 +27 +27 жарко 991.2 886.6
00 18.07 ЮВ 2 2500 м мгла н/о +29.5 +7.9 26 +29 +29 жарко 993.0 887.9
03 18.07 СВ 1 2400 м в посл. час снег {морось} н/о +31.4 +9.5 26 +31 +31 жарко 994.2 889.6
06 18.07 СЗ 1 3200 м мгла н/о +36.4 +11.3 22 +36 +36 очень
жарко
992.5 889.7 +27.5
09 18.07 З 2 5000 м мгла н/о +39.7 +7.2 14 +37 +37 очень
жарко
989.5 888.0
12 18.07 З 3 9000 м мгла н/о +41.6 -3.3 6 +37 +37 очень
жарко
986.6 886.0
15 18.07 ЮЗ 2 11 км н/о +37.6 +0.6 10 +34 +34 очень
жарко
988.0 886.0
18 18.07 штиль 0 н/о н/о +42.2
21 18.07 ЮВ 2 14 км н/о +27.4 -1.6 15 +25 +25 комфорт 992.6 886.8
00 19.07 штиль 0 20 км н/о +25.1 -0.9 18 +23 +23 комфорт 994.8 888.0
03 19.07 СВ 2 10 км н/о +30.2 +7.9 25 +29 +29 жарко 994.5 889.5
06 19.07 З 2 9000 м мгла н/о +37.8 +8.6 17 +36 +36 очень
жарко
991.9 889.6 +25.0
09 19.07 СЗ 2 12 км н/о +41.3 +4.8 11 +38 +38 очень
жарко
989.0 888.1
12 19.07 З 3 28 км н/о +42.5 -7.3 4 +38 +38 очень
жарко
986.7 886.4
15 19.07 ЮЗ 3 15 км н/о +37.4 -2.6 8 +33 +33 жарко 988.5 886.4
18 19.07 ЮЗ 2 13 км н/о +32.8 -7.7 7 +29 +29 жарко 991.0 887.2 +42.7
21 19.07 ЮВ 3 8000 м мгла н/о +31.5 -5.4 9 +28 +28 жарко 992.7 888.3
00 20.07 ЮВ 2 6000 м мгла н/о +31.1 +8.7 25 +30 +30 жарко 994.1 889.4
03 20.07 С 1 10 км н/о +31.5 +10.7 28 +31 +31 жарко 997.3 892.4
06 20.07 ЮЗ 1 9000 м мгла н/о +37.1 +12.5 23 +37 +37 очень
жарко
994.9 892.1 +27.5
09 20.07 С 2 10 км мгла {дождь} н/о +39.2 +7.8 15 +37 +37 очень
жарко
992.5 890.6
12 20.07 СЗ 1 8000 м мгла н/о +40.4 +6.6 13 +38 +38 очень
жарко
989.6 888.3
15 20.07 ЮЗ 2 8000 м мгла н/о +37.5 +5.4 14 +35 +35 очень
жарко
990.2 888.0
18 20.07 ЮВ 1 5000 м мгла н/о +32.3 +8.5 23 +31 +31 жарко 992.9 888.7 +41.3
21 20.07 ЮВ 3 7000 м мгла н/о +32.0 +10.3 26 +32 +32 жарко 993.5 889.1
00 21.07 ЮВ 1 16 км н/о +30.6 +11.5 31 +31 +31 жарко 994.4 889.5
03 21.07 ЮВ 2 4300 м мгла н/о +32.2 +10.2 26 +32 +32 жарко 996.0 891.5
09 21.07 С 3 6000 м мгла {дождь} н/о +39.6 +10.9 18 +38 +38 очень
жарко
991.9 890.2
12 21.07 СЗ 1 8000 м в посл. час снег {морось} н/о +40.7 +5.6 12 +38 +38 очень
жарко
988.8 887.7
15 21.07 З 2 8000 м мгла н/о +38.0 +4.7 13 +35 +35 очень
жарко
989.4 887.4
18 21.07 Ю 4 1700 м мгла н/о +35.1 +8.8 20 +34 +34 очень
жарко
991.6 888.5 +41.7
21 21.07 Ю 2 2700 м мгла н/о +33.4 +10.1 24 +33 +33 жарко 992.7 888.9
03 22.07 В 1 4200 м в посл. час морось н/о +32.3 +10.3 26 +32 +32 жарко 995.8 891.3
09 22.07 В 3 6000 м мгла н/о +39.7 +9.2 16 +38 +38 очень
жарко
990.9 889.3
12 22.07 СЗ 1 7000 м мгла н/о +40.7 +6.8 13 +38 +38 очень
жарко
988.0 887.0
15 22.07 З 1 6000 м мгла н/о +37.6 +8.4 17 +36 +36 очень
жарко
988.7 886.7
18 22.07 ЮВ 4 6000 м мгла н/о +34.4 +8.2 20 +33 +33 жарко 990.8 887.5 +41.4
21 22.07 ЮЗ 1 5000 м мгла н/о +32.6 +11.7 28 +33 +33 жарко 992.4 888.4
00 23.07 В 1 5000 м мгла н/о +30.8 +11.2 30 +31 +31 жарко 994.0 889.2
03 23.07 Ю 3 12 км н/о +32.7 +12.3 29 +33 +33 жарко 994.8 890.6
06 23.07 ЮЗ 2 2600 м мгла н/о +36.9 +10.3 20 +36 +36 очень
жарко
993.5 890.8 +29.4

 

Местоположение метеостанции Кандагар (Афганистан): широта 31.51 долгота 65.85 высота над уровнем моря 1010 м.

В архиве по умолчанию представлена погода в Кандагаре за последнюю неделю. Архивные данные за месяц целиком и за предыдущие месяцы, начиная с января 2011 года, Вы можете получить, выбрав интересующий диапазон дат из раскрывающегося списка и нажав кнопку "Ввод!".


*Определитесь, кто Вы:
робот инопланетянин человек

Внимание! Время в таблицах - всемирное. Для получения местного времени необходимо прибавить поправку, которая равна 4.5 ч.

Смотрите также архив погоды в соседних городах и на ближайших метеорологических станциях:

Погода в Лашкаргахе (Афганистан) (140 км)
Погода в Кветте (Пакистан) (171 км)
Погода в Кветта Шейх Манда (Пакистан) (172 км)
Погода в Чагчаране (Афганистан) (231 км)
Погода в Калате (Пакистан) (285 км)
Погода в Сиби (Пакистан) (292 км)
Погода в Дал Бандин (Пакистан) (324 км)
Погода в Зхобе (Пакистан) (344 км)
Погода в Бамиане (Афганистан) (411 км)
Погода в Бархане (Пакистан) (412 км)

Пояснения к столбцам:

Ветер - указаны скорость ветра в м/с - средняя за 10 мин, порывы в срок и между сроками (в фигурных скобках) и направление, откуда дует ветер: С - северный, СВ - северо-восточный, В - восточный, ЮВ - юго-восточный, Ю - южный, ЮЗ - юго-западный, З - западный, СЗ - северо-западный.
Видимость - горизонтальная дальность видимости в метрах или километрах. При видимости от 1 до 10 км при отсутствии осадков обычно наблюдается дымка, при ухудшении видимости до 1 км и менее - туман. В сухую погоду видимость может ухудшаться дымом, пылью или мглою.
Явления - указаны атмосферные явления, наблюдавшиеся в срок или в последний час перед сроком; фигурными скобками обозначены явления, наблюдавшиеся между сроками (за 1-3 часа до срока); квадратными скобками обозначены град или гололедные отложения с указанием их диаметра в мм.
Облачность - указаны через наклонную черту общая и нижняя облачность в баллах и высота нижней границы облаков в метрах; квадратными скобками обозначены формы облаков: Ci - перистые, Cs - перисто-слоистые, Cc - перисто-кучевые, Ac - высококучевые, As - высокослоистые, Sc - слоисто-кучевые, Ns - слоисто-дождевые, Cu - кучевые, Cb - кучево-дождевые. Подробнее классификацию облаков см. в Атласе облаков (PDF).
T - Температура воздуха - температура, измеренная на высоте 2 м над землей.
Td - Температура точки росы - температура, при понижении до которой содержащийся в воздухе водяной пар достигнет насыщения.
f - Относительная влажность воздуха - влажноcть воздуха, измеренная на высоте 2 м над землей.
Te - Эффективная температура - температура, которую ощущает одетый по сезону человек в тени. Характеристика душности погоды. При расчете учитывается влияние влажности воздуха и скорости ветра на теплоощущения человека.
Tes - Эффективная температура на солнце - температура, которую ощущает человек, с поправкой на солнечный нагрев. Характеристика знойности погоды. Зависит от высоты солнца над горизонтом, облачности и скорости ветра. Ночью, в пасмурную погоду, а также при ветре 12 м/с и более поправка равна нулю.
P - Атмосферное давление - приведенное к уровню моря атмосферное давление.
Po - Атмосферное давление - измеренное на уровне метеостанции атмосферное давление.
Tmin - Минимальная температура - минимум температуры воздуха на высоте 2 м над землей.
Tmax - Максимальная температура - максимум температуры воздуха на высоте 2 м над землей.
R - Количество осадков - Количество выпавших осадков за период времени, мм. При наведении курсора мыши на число - период времени, за который выпало указанное количество осадков.
R24 - Количество осадков - Количество выпавших осадков за 24 часа, мм.
S - Снежный покров - Высота снежного покрова, см. При наведении курсора мыши на число - состояние снежного покрова и степень покрытия местности в баллах.